TimeCDT,TemperatureF,Dew PointF,Humidity,Sea Level PressureIn,VisibilityMPH,Wind Direction,Wind SpeedMPH,Gust SpeedMPH,PrecipitationIn,Events,Conditions,WindDirDegrees,DateUTC
12:01 AM,73.9,73.9,100,29.82,2.0,Calm,Calm,-,N/A,,Clear,0,2013-09-01 05:01:00
12:09 AM,73.0,73.0,100,29.82,1.0,Calm,Calm,-,N/A,,Clear,0,2013-09-01 05:09:00
12:22 AM,73.0,73.0,100,29.82,3.0,East,3.5,-,N/A,,Clear,100,2013-09-01 05:22:00
12:39 AM,73.0,73.0,100,29.81,1.2,Calm,Calm,-,N/A,,Clear,0,2013-09-01 05:39:00
12:46 AM,73.0,73.0,100,29.81,0.2,Calm,Calm,-,N/A,Fog,Fog,0,2013-09-01 05:46:00
12:53 AM,73.0,73.0,100,29.80,0.2,Calm,Calm,-,N/A,Fog,Fog,0,2013-09-01 05:53:00
1:14 AM,73.0,73.0,100,29.81,0.5,Calm,Calm,-,N/A,Fog,Fog,0,2013-09-01 06:14:00
1:25 AM,73.0,73.0,100,29.81,0.2,Calm,Calm,-,N/A,Fog,Fog,0,2013-09-01 06:25:00
1:31 AM,73.0,73.0,100,29.81,0.5,Calm,Calm,-,N/A,Fog,Fog,0,2013-09-01 06:31:00
1:42 AM,73.0,73.0,100,29.81,0.2,Calm,Calm,-,N/A,Fog,Fog,0,2013-09-01 06:42:00
1:53 AM,73.0,73.0,100,29.79,0.2,Calm,Calm,-,N/A,Fog,Fog,0,2013-09-01 06:53:00
1:59 AM,72.0,72.0,100,29.81,1.5,Calm,Calm,-,N/A,,Partly Cloudy,0,2013-09-01 06:59:00
2:01 AM,72.0,72.0,100,29.81,3.0,Calm,Calm,-,N/A,,Partly Cloudy,0,2013-09-01 07:01:00
2:05 AM,71.1,71.1,100,29.81,1.5,Calm,Calm,-,N/A,,Partly Cloudy,0,2013-09-01 07:05:00
2:07 AM,71.1,71.1,100,29.81,0.8,Calm,Calm,-,N/A,,Mist,0,2013-09-01 07:07:00
2:16 AM,72.0,72.0,100,29.82,0.2,Calm,Calm,-,N/A,Fog,Fog,0,2013-09-01 07:16:00
2:19 AM,72.0,72.0,100,29.82,0.5,East,3.5,-,N/A,Fog,Fog,100,2013-09-01 07:19:00
2:27 AM,72.0,72.0,100,29.82,2.0,Calm,Calm,-,N/A,,Clear,0,2013-09-01 07:27:00
2:37 AM,72.0,71.1,97,29.82,1.2,Calm,Calm,-,N/A,,Clear,0,2013-09-01 07:37:00
2:49 AM,71.6,71.6,100,29.82,2.5,Calm,Calm,-,N/A,,Clear,0,2013-09-01 07:49:00
2:53 AM,72.0,72.0,100,29.81,2.5,Calm,Calm,-,N/A,,Clear,0,2013-09-01 07:53:00
3:11 AM,71.1,71.1,100,29.82,3.0,Calm,Calm,-,N/A,,Clear,0,2013-09-01 08:11:00
3:33 AM,71.1,71.1,100,29.82,2.5,Calm,Calm,-,N/A,,Clear,0,2013-09-01 08:33:00
3:53 AM,71.1,71.1,100,29.81,2.5,Calm,Calm,-,N/A,,Clear,0,2013-09-01 08:53:00
4:02 AM,71.1,70.0,96,29.83,1.0,Calm,Calm,-,N/A,,Clear,0,2013-09-01 09:02:00
4:20 AM,71.1,71.1,100,29.83,2.5,Calm,Calm,-,N/A,,Clear,0,2013-09-01 09:20:00
4:53 AM,71.1,70.0,96,29.82,3.0,Calm,Calm,-,N/A,,Clear,0,2013-09-01 09:53:00
5:14 AM,71.1,70.0,96,29.84,2.5,Calm,Calm,-,N/A,,Clear,0,2013-09-01 10:14:00
5:53 AM,71.1,70.0,96,29.83,4.0,Calm,Calm,-,N/A,,Clear,0,2013-09-01 10:53:00
6:10 AM,69.1,69.1,100,29.84,2.0,Calm,Calm,-,N/A,,Clear,0,2013-09-01 11:10:00
6:53 AM,70.0,69.1,97,29.83,1.0,Calm,Calm,-,N/A,,Clear,0,2013-09-01 11:53:00
7:53 AM,73.0,72.0,96,29.85,1.8,Calm,Calm,-,N/A,,Clear,0,2013-09-01 12:53:00
8:03 AM,73.9,72.0,93,29.87,2.5,Calm,Calm,-,N/A,,Clear,0,2013-09-01 13:03:00
8:18 AM,75.9,72.0,87,29.87,3.0,Calm,Calm,-,N/A,,Clear,0,2013-09-01 13:18:00
8:53 AM,81.0,72.0,74,29.86,5.0,Calm,Calm,-,N/A,,Haze,0,2013-09-01 13:53:00
9:53 AM,84.0,72.0,67,29.87,6.0,SW,4.6,-,N/A,,Haze,220,2013-09-01 14:53:00
10:53 AM,88.0,73.0,61,29.86,7.0,WSW,4.6,-,N/A,,Clear,250,2013-09-01 15:53:00
11:53 AM,91.0,73.0,55,29.85,8.0,SSW,8.1,-,N/A,,Clear,200,2013-09-01 16:53:00
12:53 PM,93.9,72.0,49,29.83,9.0,West,5.8,-,N/A,,Clear,280,2013-09-01 17:53:00
1:53 PM,95.0,72.0,47,29.82,9.0,Variable,4.6,-,N/A,,Clear,0,2013-09-01 18:53:00
2:53 PM,98.1,71.1,42,29.80,6.0,Calm,Calm,-,N/A,,Haze,0,2013-09-01 19:53:00
3:53 PM,100.0,70.0,38,29.76,10.0,South,6.9,-,N/A,,Clear,180,2013-09-01 20:53:00
4:53 PM,100.0,69.1,37,29.74,10.0,SW,6.9,-,N/A,,Clear,230,2013-09-01 21:53:00
5:53 PM,99.0,68.0,36,29.74,10.0,WSW,3.5,-,N/A,,Clear,250,2013-09-01 22:53:00
6:53 PM,97.0,69.1,40,29.75,10.0,Calm,Calm,-,N/A,,Clear,0,2013-09-01 23:53:00
7:34 PM,90.0,71.1,54,29.82,8.0,North,12.7,26.5,N/A,Thunderstorm,Mostly Cloudy,360,2013-09-02 00:34:00
7:53 PM,87.1,68.0,53,29.79,10.0,NE,8.1,-,N/A,Thunderstorm,Scattered Clouds,40,2013-09-02 00:53:00
8:11 PM,86.0,68.0,55,29.82,10.0,NE,9.2,-,N/A,Thunderstorm,Thunderstorm,50,2013-09-02 01:11:00
8:34 PM,79.0,69.1,72,29.83,7.0,NE,13.8,27.6,0.00,Rain,Light Rain,40,2013-09-02 01:34:00
8:53 PM,75.9,71.1,85,29.83,8.0,ENE,15.0,24.2,0.00,Rain,Light Rain,60,2013-09-02 01:53:00
9:20 PM,75.9,72.0,87,29.88,7.0,East,10.4,-,0.00,Rain-Thunderstorm,Light Rain,80,2013-09-02 02:20:00
9:35 PM,75.0,72.0,90,29.87,8.0,East,12.7,-,0.00,Rain,Light Rain,90,2013-09-02 02:35:00
9:53 PM,75.9,72.0,87,29.86,8.0,ENE,11.5,-,0.00,Rain,Light Rain,70,2013-09-02 02:53:00
10:04 PM,75.0,72.0,90,29.88,8.0,ENE,10.4,-,0.00,Rain-Thunderstorm,Light Rain,70,2013-09-02 03:04:00
10:19 PM,75.0,72.0,90,29.88,8.0,ENE,6.9,-,0.00,Rain,Light Rain,70,2013-09-02 03:19:00
10:53 PM,73.9,73.0,97,29.86,6.0,ESE,4.6,-,0.00,Rain,Light Rain,120,2013-09-02 03:53:00
11:53 PM,73.9,72.0,93,29.86,6.0,WNW,4.6,-,0.00,,Partly Cloudy,300,2013-09-02 04:53:00